Flag for Jersey Weather past 2 weeks in Saint Helier, Jersey

Now
48 °F

Passing clouds.


Feels Like: 45 °F
Forecast: 46 / 57 °F
Wind: 7 mph from Southwest

Location: Jersey Airport

Current Time: Apr 28, 2015 at 8:03:11 PM

Latest Report: Apr 28, 2015 at 7:20 PM


Visibility: N/A

Pressure: 30.12 "Hg

Humidity: 66%

Dew point: 37 °F

Location of Saint HelierLocation

Historic Weather in Saint Helier — Graph

°F

Saint Helier temperature yesterday

Maximum temperature yesterday: 52 °F (at 2:20 PM)
Minimum temperature yesterday: 46 °F (at 5:20 AM)
Average temperature yesterday: 49 °F

Past Weeks' High & Low Weather Summary

 TemperatureHumidityPressure
High75 °F (Apr 15, 3:20 PM)100% (Apr 17, 5:20 AM)30.45 "Hg (Apr 17, 5:20 AM)
Low43 °F (Apr 28, 6:20 AM)31% (Apr 15, 4:20 PM)29.68 "Hg (Apr 26, 3:50 PM)
Average55 °F75%30.06 "Hg
* Reported Apr 13 6:20 PM — Apr 28 6:50 PM, Saint Helier, Weather by CustomWeather, © 2015

Note: Actual official high and low records may vary slightly from our data, if they occured in-between our weather recording intervals... More about our weather records

Advertising

Saint Helier weather history for previous 24 hours

 ConditionsComfort  
Time TempWeatherWind HumidityBarometerVisibility
6:50 PM
Tue, Apr 28
48 °FPassing clouds.7 mph71%30.15 "HgN/A
6:20 PM48 °FPassing clouds.5 mph71%30.15 "HgN/A
5:50 PM50 °FPassing clouds.8 mph67%30.15 "HgN/A
5:20 PM50 °FPassing clouds.8 mph67%30.15 "HgN/A
4:50 PM50 °FPassing clouds.6 mph58%30.15 "HgN/A
4:20 PM52 °FPassing clouds.9 mph58%30.15 "HgN/A
3:50 PM52 °FPassing clouds.10 mph58%30.15 "HgN/A
3:20 PM52 °FPassing clouds.10 mph62%30.18 "HgN/A
2:50 PM52 °FPassing clouds.12 mph67%30.18 "HgN/A
2:20 PM52 °FPassing clouds.13 mph62%30.18 "HgN/A
1:50 PM52 °FScattered clouds.14 mph62%30.18 "HgN/A
1:20 PM52 °FPassing clouds.9 mph58%30.18 "HgN/A
12:50 PM52 °FPassing clouds.13 mph62%30.18 "HgN/A
12:20 PM52 °FPassing clouds.14 mph58%30.18 "HgN/A
11:50 AM52 °FPassing clouds.9 mph62%30.18 "HgN/A
11:20 AM52 °FPassing clouds.10 mph54%30.18 "HgN/A
10:50 AM50 °FPassing clouds.13 mph62%30.15 "HgN/A
10:20 AM50 °FPassing clouds.13 mph58%30.15 "HgN/A
9:50 AM50 °FPassing clouds.14 mph62%30.15 "HgN/A
9:20 AM50 °FPassing clouds.14 mph58%30.12 "HgN/A
8:50 AM48 °FScattered clouds.9 mph62%30.12 "HgN/A
8:20 AM48 °FPassing clouds.8 mph66%30.12 "HgN/A
7:50 AM48 °FPassing clouds.9 mph62%30.09 "HgN/A
7:20 AM46 °FPassing clouds.10 mph71%30.09 "HgN/A
6:50 AM45 °FPassing clouds.12 mph71%30.09 "HgN/A
6:20 AM43 °FPassing clouds.8 mph81%30.07 "HgN/A
5:50 AM45 °FPassing clouds.17 mph71%30.07 "HgN/A
5:20 AM45 °FPassing clouds.12 mph76%30.04 "HgN/A
4:20 AM45 °FPassing clouds.13 mph76%30.04 "HgN/A
3:50 AM45 °FPassing clouds.15 mph76%30.04 "HgN/A
9:20 PM
Mon, Apr 27
46 °FPassing clouds.21 mph71%29.98 "HgN/A
8:50 PM46 °FPassing clouds.14 mph71%29.98 "HgN/A
8:20 PM46 °FPassing clouds.17 mph71%29.98 "HgN/A
Weather by CustomWeather, © 2015

See weather overviewHow to use our weather pages